This is the latest recevied weather packets stored in our database for station/object KE8CZD. If no packets are shown the sender has not sent any weather packets the latest 10 day(s).
| Time | Temp. | Humidity | Pressure | Rain* | Wind** | Luminosity | Snow |
|---|---|---|---|---|---|---|---|
| 1778120684 | 8.89° C | 51% | 1010.3 hPa | 0 mm | - | - | - |
| 1778120324 | 8.89° C | 51% | 1010.3 hPa | 0 mm | - | - | - |
| 1778119964 | 8.89° C | 51% | 1010.2 hPa | 0 mm | - | - | - |
| 1778119604 | 9.44° C | 50% | 1010.1 hPa | 0 mm | - | - | - |
| 1778119244 | 9.44° C | 50% | 1010 hPa | 0 mm | - | - | - |
| 1778118884 | 9.44° C | 51% | 1010 hPa | 0 mm | - | - | - |
| 1778118524 | 8.89° C | 52% | 1009.9 hPa | 0 mm | - | - | - |
| 1778118164 | 8.89° C | 51% | 1010 hPa | 0 mm | - | - | - |
| 1778117804 | 9.44° C | 51% | 1010 hPa | 0 mm | - | - | - |
| 1778117444 | 9.44° C | 51% | 1009.8 hPa | 0 mm | - | - | - |
| 1778117084 | 9.44° C | 51% | 1009.8 hPa | 0 mm | - | - | - |
| 1778116724 | 9.44° C | 51% | 1009.7 hPa | 0 mm | - | - | - |
| 1778116364 | 9.44° C | 51% | 1009.8 hPa | 0 mm | - | - | - |
| 1778116004 | 9.44° C | 51% | 1010 hPa | 0 mm | - | - | - |
| 1778115644 | 9.44° C | 51% | 1009.8 hPa | 0 mm | - | - | - |
| 1778115284 | 10° C | 47% | 1009.6 hPa | 0 mm | - | - | - |
| 1778114924 | 10° C | 48% | 1009.7 hPa | 0 mm | - | - | - |
| 1778114564 | 10° C | 49% | 1009.7 hPa | 0 mm | - | - | - |
| 1778114204 | 10° C | 47% | 1009.6 hPa | 0 mm | - | - | - |
| 1778113844 | 10° C | 44% | 1009.5 hPa | 0 mm | - | - | - |
| 1778113484 | 10.56° C | 42% | 1009.4 hPa | 0 mm | - | - | - |
| 1778113124 | 10.56° C | 42% | 1009.4 hPa | 0 mm | - | - | - |
| 1778112764 | 10.56° C | 42% | 1009.4 hPa | 0 mm | - | - | - |
| 1778112404 | 10.56° C | 41% | 1009.4 hPa | 0 mm | - | - | - |
| 1778112044 | 10.56° C | 41% | 1009.4 hPa | 0 mm | - | - | - |
* Rain latest hour (hover to see other rain measurements)
** Current wind speed in m/s (hover to see current wind gust speed)